Showing default

KUIPER-00274, 67792

Orbit data source: Space-Track

KUIPER-00274, 67792 is a payload satellite owned by Kuiper Systems (US) in LEO that was launched on Thu, 12 Feb 2026 UTC via an ARIANE 64 launch vehicle from the French Guiana (FRGUI). Payload-class satellites include a variety of spacecraft equipped with specific instruments for various scientific and technological missions. These include communications satellites like Starlink; space stations such as the ISS; scientific satellites like the Hubble; Earth observation satellites from companies like Planet Labs, Umbra, and HawkEye 360; GPS; miniature CubeSats for education and research; and military/defense satellites.

Loading next visibility...
Identifier
67792, 2026-030AE
Orbit
LEO
Country
Flag of USUS
Related business
Manufacturer
Kuiper Systems
Mission
Operational Commercial Communications
Bus & Motor
KUIPER, Unknown motor
Mass
~490 kg wet, ~490 kg dry
Launch date (UTC)
2026-02-12 (4 months ago)
Launch vehicle
ARIANE 64
Launch site
French Guiana (FRGUI)
Object type
Payload
Rocket body
Debris
Shape & HBR
Box + 2 Pan, 3.4 m
Radar Cross Section
2.326 m², Large (>1 m²)

Expand to show TLE details & history
Last TLE update: 15 hours ago

TLE from 15 hours ago
0 KUIPER-00274
1 67792U 26030AE  26171.24045909 -.00006065  00000-0 -76702-3 0  9996
2 67792  51.9017 109.6347 0001525 148.6273 211.4781 14.79945857 20500
Epoch: 2026-06-20T05:46Z
TLE epoch observation values (Epoch: 2026-06-20T05:46:15.665Z)
Latitude
0.00002°
Longitude
114.61152°
Altitude
631.153 km
Speed
7.544 km/s
True Right ascension
07h 18m 32s
True Declination
0° 00' 00"
Sunlit
Object was in daylight at epoch
Visualization orbit readout
Latitude
Unknown
Longitude
Unknown
Altitude
Unknown
Speed
Unknown
Apparent Right ascension
Unknown
Apparent Declination
Unknown
Sunlit
N/A
Visualization observer readout
Local Sidereal Time
07:18:39
Azimuth
Unknown
Elevation
Unknown
Doppler factor
Unknown
Orbital elements
Apogee altitude
631.015 km
Perigee altitude
628.877 km
Semi-major axis
7,008.083 km
Eccentricity
0.00015
Inclination
51.9017°
RAAN
109.6347°
Arg. of periapsis
148.6273°
True anomaly
211.46898°
Mean anomaly
211.4781°
Eccentric anomaly
211.47354°
Mean motion
3.69951 °/min
Orbital period
97.31 mins
BSTAR
-0.00076702
Loading maneuver chart data...
Computing Atmospheric mass density...
Loading historical data...
Loading historical data...
Loading historical data...
Loading historical data...
Loading historical data...
Loading historical data...
Loading historical data...

Documentation

Showing up to 5 results
|